Tracking 19717 objects as of 25-Jun-2019
HD Live streaming from Space Station
objects crossing your sky now

COSMOS 1823 DEB

Track COSMOS 1823 DEB now!
10-day predictions


NORAD ID: 18757
Int'l Code: 1987-020AJ
Perigee: 1,202.1 km
Apogee: 1,228.1 km
Inclination: 73.7 °
Period: 109.6 minutes
Semi major axis: 7586 km
RCS: 0.0664 m2 (small)
Launch date: February 20, 1987
Source: Commonwealth of Independent States (former USSR) (CIS)
Launch site: PLESETSK MISSILE AND SPACE COMPLEX (PKMTR)

Note: This is SATELLITE DEBRIS
aabbcc
Your satellite tracking list
Your tracking list is empty




NASA's NSSDC Master Catalog

Two Line Element Set (TLE):
1 18757U 87020AJ  19174.92201646 +.00001612 +00000-0 +44337-2 0  9990
2 18757 073.7301 234.2266 0017115 209.9287 204.2473 13.13930684462561
Source of the keplerian elements: AFSPC